When you browse on this site, cookies collect data to enhance your experience and personalize the content and advertising you see.
Visit our Privacy Policy to learn more. By continuing to use the site, you agree to this use of cookies and data.
EN

Hourly Weather Monterey Park

Today, 23 September, Wednesday

Time Temperature Precipitation Wind Pressure Humidity
00:00 +24°C° 0 mm 1 mps 752 mmHg 55%
01:00 +24°C° 0 mm 1 mps 752 mmHg 55%
02:00 +24°C° 0 mm 1 mps 752 mmHg 55%
03:00 +24°C° 0 mm 1 mps 752 mmHg 55%
04:00 +23°C° 0 mm 1 mps 752 mmHg 59%
05:00 +24°C° 0 mm 1 mps 752 mmHg 57%
06:00 +25°C° 0 mm 1 mps 753 mmHg 55%
07:00 +25°C° 0 mm 1 mps 753 mmHg 52%
08:00 +27°C° 0 mm 1 mps 753 mmHg 47%
09:00 +28°C° 0 mm 1 mps 753 mmHg 43%
10:00 +30°C° 0 mm 2 mps 753 mmHg 38%
11:00 +31°C° 0 mm 2 mps 752 mmHg 35%
12:00 +33°C° 0 mm 3 mps 752 mmHg 33%
13:00 +34°C° 0 mm 3 mps 751 mmHg 30%
14:00 +34°C° 0 mm 3 mps 751 mmHg 30%
15:00 +33°C° 0 mm 3 mps 751 mmHg 30%
16:00 +33°C° 0 mm 3 mps 751 mmHg 30%
17:00 +31°C° 0 mm 3 mps 751 mmHg 34%
18:00 +29°C° 0 mm 2 mps 751 mmHg 38%
19:00 +27°C° 0 mm 1 mps 751 mmHg 42%
20:00 +27°C° 0 mm 1 mps 751 mmHg 43%
21:00 +27°C° 0 mm 1 mps 751 mmHg 44%
22:00 +27°C° 0 mm 1 mps 751 mmHg 45%
23:00 +26°C° 0 mm 1 mps 751 mmHg 45%

Tomorrow, 24 September, Thursday

Time Temperature Precipitation Wind Pressure Humidity
00:00 +26°C° 0 mm 1 mps 751 mmHg 44%
01:00 +26°C° 0 mm 1 mps 750 mmHg 44%
02:00 +26°C° 0 mm 1 mps 750 mmHg 44%
03:00 +25°C° 0 mm 1 mps 750 mmHg 43%
04:00 +25°C° 0 mm 1 mps 750 mmHg 43%
05:00 +26°C° 0 mm 1 mps 750 mmHg 42%
06:00 +26°C° 0 mm 1 mps 750 mmHg 41%
07:00 +25°C° 0 mm 0 mps 750 mmHg 39%
08:00 +28°C° 0 mm 1 mps 750 mmHg 36%
09:00 +30°C° 0 mm 1 mps 750 mmHg 32%
10:00 +32°C° 0 mm 2 mps 750 mmHg 29%
11:00 +32°C° 0 mm 2 mps 750 mmHg 27%
12:00 +34°C° 0 mm 3 mps 749 mmHg 26%
13:00 +35°C° 0 mm 3 mps 749 mmHg 24%
14:00 +34°C° 0 mm 3 mps 748 mmHg 25%
15:00 +34°C° 0 mm 3 mps 748 mmHg 27%
16:00 +33°C° 0 mm 3 mps 747 mmHg 28%
17:00 +31°C° 0 mm 3 mps 748 mmHg 31%
18:00 +29°C° 0 mm 2 mps 748 mmHg 35%
19:00 +28°C° 0 mm 1 mps 749 mmHg 38%
20:00 +27°C° 0 mm 1 mps 749 mmHg 39%
21:00 +27°C° 0 mm 1 mps 749 mmHg 41%
22:00 +26°C° 0 mm 1 mps 749 mmHg 42%
23:00 +26°C° 0 mm 1 mps 749 mmHg 43%

Day after tomorrow, 25 September, Friday

Time Temperature Precipitation Wind Pressure Humidity
00:00 +26°C° 0 mm 1 mps 749 mmHg 43%
01:00 +26°C° 0 mm 1 mps 748 mmHg 44%
02:00 +25°C° 0 mm 1 mps 748 mmHg 45%
03:00 +25°C° 0 mm 1 mps 748 mmHg 46%
04:00 +25°C° 0 mm 1 mps 748 mmHg 47%
05:00 +25°C° 0 mm 1 mps 749 mmHg 46%
06:00 +25°C° 0 mm 1 mps 749 mmHg 46%
07:00 +26°C° 0 mm 1 mps 749 mmHg 45%
08:00 +27°C° 0 mm 1 mps 749 mmHg 42%
09:00 +29°C° 0 mm 2 mps 749 mmHg 38%
10:00 +30°C° 0 mm 2 mps 750 mmHg 35%
11:00 +31°C° 0 mm 2 mps 749 mmHg 34%
12:00 +31°C° 0 mm 3 mps 749 mmHg 34%
13:00 +33°C° 0 mm 3 mps 749 mmHg 33%
14:00 +33°C° 0 mm 3 mps 748 mmHg 34%
15:00 +31°C° 0 mm 3 mps 748 mmHg 35%
16:00 +31°C° 0 mm 3 mps 748 mmHg 37%
17:00 +29°C° 0 mm 2 mps 748 mmHg 42%
18:00 +28°C° 0 mm 2 mps 748 mmHg 47%
19:00 +26°C° 0 mm 2 mps 749 mmHg 52%
20:00 +26°C° 0 mm 1 mps 749 mmHg 52%
21:00 +25°C° 0 mm 1 mps 749 mmHg 53%
22:00 +25°C° 0 mm 1 mps 750 mmHg 53%
23:00 +25°C° 0 mm 1 mps 750 mmHg 54%

26 September, Saturday

Time Temperature Precipitation Wind Pressure Humidity
00:00 +25°C° 0 mm 1 mps 750 mmHg 54%
01:00 +24°C° 0 mm 1 mps 749 mmHg 55%
02:00 +24°C° 0 mm 1 mps 749 mmHg 56%
03:00 +24°C° 0 mm 1 mps 749 mmHg 58%
04:00 +23°C° 0 mm 1 mps 749 mmHg 59%
05:00 +24°C° 0 mm 1 mps 749 mmHg 59%
06:00 +24°C° 0 mm 1 mps 750 mmHg 59%
07:00 +25°C° 0 mm 1 mps 750 mmHg 59%
08:00 +26°C° 0 mm 1 mps 750 mmHg 54%
09:00 +28°C° 0 mm 2 mps 750 mmHg 50%
10:00 +29°C° 0 mm 2 mps 750 mmHg 45%
11:00 +30°C° 0 mm 3 mps 749 mmHg 43%
12:00 +31°C° 0 mm 3 mps 749 mmHg 41%
13:00 +33°C° 0 mm 3 mps 748 mmHg 39%
14:00 +31°C° 0 mm 3 mps 748 mmHg 40%
15:00 +31°C° 0 mm 3 mps 748 mmHg 42%
16:00 +30°C° 0 mm 3 mps 748 mmHg 43%
17:00 +29°C° 0 mm 2 mps 748 mmHg 48%
18:00 +27°C° 0 mm 2 mps 748 mmHg 52%
19:00 +26°C° 0 mm 1 mps 748 mmHg 57%
20:00 +26°C° 0 mm 1 mps 749 mmHg 57%
21:00 +25°C° 0 mm 1 mps 749 mmHg 58%
22:00 +25°C° 0 mm 1 mps 750 mmHg 58%
23:00 +25°C° 0 mm 1 mps 750 mmHg 57%

27 September, Sunday

Time Temperature Precipitation Wind Pressure Humidity
00:00 +25°C° 0 mm 1 mps 750 mmHg 57%
01:00 +25°C° 0 mm 1 mps 749 mmHg 56%
02:00 +24°C° 0 mm 1 mps 749 mmHg 56%
03:00 +24°C° 0 mm 1 mps 749 mmHg 55%
04:00 +24°C° 0 mm 1 mps 749 mmHg 55%
05:00 +25°C° 0 mm 1 mps 749 mmHg 53%
06:00 +26°C° 0 mm 1 mps 750 mmHg 52%
07:00 +26°C° 0 mm 1 mps 750 mmHg 50%
08:00 +28°C° 0 mm 1 mps 750 mmHg 46%
09:00 +29°C° 0 mm 1 mps 750 mmHg 41%
10:00 +31°C° 0 mm 2 mps 751 mmHg 37%
11:00 +32°C° 0 mm 2 mps 750 mmHg 35%
12:00 +34°C° 0 mm 3 mps 750 mmHg 34%
13:00 +34°C° 0 mm 3 mps 749 mmHg 32%
14:00 +34°C° 0 mm 3 mps 749 mmHg 33%
15:00 +33°C° 0 mm 3 mps 749 mmHg 34%
16:00 +33°C° 0 mm 3 mps 749 mmHg 35%
17:00 +30°C° 0 mm 2 mps 749 mmHg 39%
18:00 +29°C° 0 mm 2 mps 749 mmHg 43%
19:00 +27°C° 0 mm 2 mps 750 mmHg 46%
20:00 +27°C° 0 mm 1 mps 750 mmHg 46%
21:00 +27°C° 0 mm 1 mps 750 mmHg 46%
22:00 +27°C° 0 mm 1 mps 751 mmHg 46%
23:00 +27°C° 0 mm 1 mps 750 mmHg 46%

28 September, Monday

Time Temperature Precipitation Wind Pressure Humidity
00:00 +26°C° 0 mm 1 mps 750 mmHg 46%
01:00 +26°C° 0 mm 1 mps 750 mmHg 46%
02:00 +26°C° 0 mm 1 mps 750 mmHg 45%
03:00 +26°C° 0 mm 1 mps 750 mmHg 45%
04:00 +26°C° 0 mm 1 mps 749 mmHg 45%
05:00 +27°C° 0 mm 1 mps 750 mmHg 44%
06:00 +27°C° 0 mm 1 mps 750 mmHg 43%
07:00 +27°C° 0 mm 1 mps 750 mmHg 42%
08:00 +29°C° 0 mm 1 mps 750 mmHg 37%
09:00 +31°C° 0 mm 1 mps 751 mmHg 32%
10:00 +34°C° 0 mm 2 mps 751 mmHg 28%
11:00 +35°C° 0 mm 2 mps 750 mmHg 26%
12:00 +36°C° 0 mm 3 mps 750 mmHg 25%
13:00 +37°C° 0 mm 3 mps 749 mmHg 23%
14:00 +36°C° 0 mm 3 mps 749 mmHg 24%
15:00 +36°C° 0 mm 3 mps 749 mmHg 25%
16:00 +35°C° 0 mm 3 mps 748 mmHg 26%
17:00 +32°C° 0 mm 2 mps 749 mmHg 29%
18:00 +31°C° 0 mm 2 mps 749 mmHg 32%
19:00 +29°C° 0 mm 1 mps 749 mmHg 35%
20:00 +29°C° 0 mm 1 mps 749 mmHg 35%
21:00 +28°C° 0 mm 1 mps 749 mmHg 36%
22:00 +28°C° 0 mm 1 mps 749 mmHg 36%
23:00 +28°C° 0 mm 1 mps 749 mmHg 36%
Show more